[[{"header":{"parameterUnit":"m.s-1","parameterCategory":1,"la1":30.2991,"la2":30.254,"lo1":-89.0895,"lo2":-89.0444,"dy":0.0017,"dx":0.0017,"nx":28,"ny":28,"refTime":"2025-08-25T03:00:00:Z","depth":0,"parameterNumber":2,"parameterNumberName":"U-component_of_WINDS"},"data":[0,0,0,0,0,0,0,0,0,0,0,0,0,0,0,0,0,0,0,0,0,0,0,0,0,0,0,0,0,0,0,0,0,0,0,0,0,0,0,0,0,0,0,0,0,0,0,0,0,0,0,0,0,0,0,0,0,0,-4.0345,-4.0345,0,-4.0352,-4.0352,-4.0352,-4.0238,-4.0235,-4.0232,-4.0229,-4.0238,-4.0241,-4.0244,0,0,0,0,0,0,0,0,0,0,0,0,0,-4.0237,-4.0239,-4.0345,-4.0345,-4.0346,-4.0352,-4.0352,-4.0352,-4.0239,-4.0235,-4.0231,-4.0227,-4.0237,-4.0241,-4.0245,0,0,0,0,0,0,0,0,0,0,0,0,0,-4.0268,-4.024,-4.0345,-4.029,-4.0285,-4.0352,-4.0352,-4.0352,-4.0239,-4.0235,-4.023,-4.0226,-4.0236,-4.0241,-4.0245,-4.0367,0,0,-4.026,-4.0262,0,0,0,0,0,0,0,0,-4.0266,-4.0272,-4.0298,-4.0293,-4.0288,-4.0289,-4.0317,-4.0357,-4.024,-4.0257,-4.0229,-4.0223,-4.0259,-4.0262,-4.0273,-4.0368,-4.0368,-4.026,-4.0263,-4.0265,-4.0266,0,0,0,0,0,0,0,-4.0264,-4.0271,-4.0348,-4.0298,-4.0292,-4.0265,-4.0264,-4.0324,-4.0284,-4.0255,-4.0247,-4.0249,-4.0256,-4.0269,-4.0273,-4.0368,-4.026,-4.0264,-4.0267,-4.0269,-4.0563,-4.0568,0,0,0,0,0,0,-4.0269,-4.027,-4.0348,-4.0348,-4.0265,-4.0271,-4.027,-4.0294,-4.0283,-4.0277,-4.0253,-4.0243,-4.0263,-4.0267,-4.0273,-4.0414,-4.0265,-4.0269,-4.0272,-4.0558,-4.0564,-4.057,0,0,0,0,0,0,-4.0267,-4.0277,-4.0348,-4.0307,-4.0314,-4.0278,-4.0305,-4.0296,-4.0309,-4.0281,-4.0274,-4.0273,-4.026,-4.0266,-4.0344,-4.0413,-4.0271,-4.0276,-4.0552,-4.056,-4.0567,-4.0698,0,0,0,0,0,0,-4.0265,-4.0277,-4.0323,-4.0309,-4.0316,-4.0419,-4.0309,-4.03,-4.0317,-4.0305,-4.0299,-4.0293,-4.0257,-4.0338,-4.0349,-4.0417,-4.0279,-4.0546,-4.0556,-4.0565,-4.0688,-4.0709,-4.0728,0,0,0,0,0,-4.0261,-4.036,-4.0325,-4.0335,-4.0372,-4.0423,-4.0427,-4.0382,-4.0323,-4.0369,-4.0351,-4.0294,-4.0404,-4.0347,-4.0358,-4.0428,-4.0541,-4.0553,-4.0564,-4.0679,-4.0705,-4.0727,0,0,0,0,0,0,-4.0383,-4.0357,-4.0318,-4.0415,-4.0422,-4.0403,-4.0459,-4.0412,-4.0436,-4.0424,-4.0368,-4.0367,-4.0455,-4.045,-4.0387,-4.0546,-4.0462,-4.0477,-4.0546,-4.0571,-4.059,-4.0589,-4.0283,0,0,0,0,0,-4.0422,-4.0464,-4.0439,-4.0527,-4.0533,-4.0496,-4.0516,-4.0481,-4.0486,-4.0489,-4.0476,-4.0484,-4.052,-4.0546,-4.0577,-4.0687,-4.0684,-4.0741,-4.0761,-4.0778,-4.079,-4.0847,-4.0872,-4.0607,-4.0606,-4.0606,0,0,-4.0501,-4.0492,-4.0522,-4.0552,-4.0552,-4.0599,-4.0499,-4.0552,-4.0586,-4.0497,-4.0569,-4.0561,-4.0567,-4.0661,-4.0702,-4.0659,-4.0863,-4.0792,-4.0806,-4.0809,-4.0862,-4.0887,-4.0909,-4.0614,-4.0613,-4.0612,0,0,-4.0668,-4.0666,-4.0738,-4.0742,-4.0744,-4.0719,-4.0737,-4.0726,-4.0717,-4.0789,-4.0723,-4.0763,-4.0827,-4.0833,-4.0845,-4.1016,-4.0964,-4.1029,-4.1133,-4.119,-4.121,-4.1229,-4.1289,-4.1311,-4.1041,-4.1042,-4.1042,0,-4.0766,-4.0832,-4.0782,-4.0839,-4.0854,-4.0776,-4.0849,-4.0855,-4.0869,-4.0881,-4.0834,-4.0912,-4.091,-4.1004,-4.1046,-4.1059,-4.1077,-4.1028,-4.1211,-4.1229,-4.1245,-4.1302,-4.1325,-4.1049,-4.1049,-4.1048,-4.1047,0,-4.0952,-4.0999,-4.1057,-4.1071,-4.1093,-4.1159,-4.1119,-4.1148,-4.1112,-4.1092,-4.1167,-4.1162,-4.1191,-4.1212,-4.1177,-4.1302,-4.1275,-4.1221,-4.1135,-4.1279,-4.1331,-4.1353,-4.106,-4.1058,-4.1055,-4.1054,0,0,-4.1194,-4.1181,-4.1203,-4.1208,-4.1206,-4.1242,-4.1304,-4.1332,-4.1357,-4.137,-4.1421,-4.1477,-4.1427,-4.144,-4.1406,-4.1456,-4.1591,-4.1394,-4.1394,-4.143,-4.1727,-4.1767,-4.1793,-4.1557,-4.1561,-4.1564,-4.1726,0,-4.1355,-4.1459,-4.1417,-4.1525,-4.1568,-4.1495,-4.1549,-4.1555,-4.1539,-4.1573,-4.1556,-4.1596,-4.1527,-4.1535,-4.1581,-4.1565,-4.1649,-4.1553,-4.1603,-4.1606,-4.1602,-4.182,-4.1862,-4.2015,-4.1746,-4.175,-4.1752,0,-4.1557,-4.1577,-4.1689,-4.1679,-4.1696,-4.1745,-4.1767,-4.1802,-4.1807,-4.1792,-4.1808,-4.1762,-4.1824,-4.174,-4.1824,-4.1759,-4.1778,-4.1773,-4.1778,-4.1779,-4.1686,-4.1826,-4.2063,-4.2085,-4.1784,-4.1782,-4.1779,0,-4.172,-4.1776,-4.185,-4.1857,-4.1848,-4.1885,-4.1883,-4.1883,-4.1903,-4.1923,-4.1935,-4.1964,-4.1979,-4.2002,-4.1966,-4.1909,-4.2055,-4.1968,-4.2044,-4.2045,-4.2076,-4.2074,-4.2317,-4.2092,-4.2091,-4.2091,-4.2091,0,-4.1904,-4.1975,-4.1923,-4.1968,-4.2046,-4.1998,-4.2077,-4.2067,-4.2069,-4.2111,-4.2052,-4.2093,-4.2044,-4.2082,-4.2054,-4.2127,-4.2135,-4.2125,-4.2116,-4.2129,-4.213,-4.2139,-4.2127,-4.2097,-4.2096,-4.2094,-4.2093,0,-4.2098,-4.2067,-4.2142,-4.2128,-4.2126,-4.2184,-4.2172,-4.2214,-4.2195,-4.225,-4.226,-4.223,-4.2271,-4.2238,-4.2279,-4.226,-4.2357,-4.2334,-4.2354,-4.2347,-4.2424,-4.2417,-4.268,-4.2712,-4.2468,-4.247,-4.2472,0,-4.2216,-4.2269,-4.2261,-4.2284,-4.2286,-4.2326,-4.2345,-4.2301,-4.2324,-4.2335,-4.2375,-4.2411,-4.2437,-4.2506,-4.2489,-4.252,-4.2496,-4.2587,-4.25,-4.2511,-4.2496,-4.2492,-4.2497,-4.2603,-4.2606,-4.2609,-4.261,0,-4.2428,-4.241,-4.244,-4.2466,-4.2491,-4.2509,-4.2522,-4.2545,-4.25,-4.2529,-4.257,-4.259,-4.2632,-4.2668,-4.2693,-4.2692,-4.2644,-4.2638,-4.2657,-4.2669,-4.2678,-4.2673,-4.24,-4.2632,-4.263,-4.2628,-4.2627,-4.2626,-4.2587,-4.263,-4.2631,-4.2666,-4.2672,-4.2686,-4.2724,-4.271,-4.2743,-4.2772,-4.2745,-4.2794,-4.2798,-4.2827,-4.2832,-4.287,-4.2833,-4.2861,-4.2867,-4.2874,-4.2884,-4.2674,-4.2875,-4.2875,-4.2874,-4.2873,-4.2873,0,-4.2794,-4.2791,-4.2825,-4.2845,-4.2873,-4.2826,-4.2839,-4.2866,-4.2909,-4.2918,-4.2944,-4.2992,-4.3027,-4.3013,-4.3044,-4.3078,-4.3057,-4.3087,-4.3083,-4.3084,-4.2917,-4.2897,-4.3104,-4.3104,-4.3104,-4.3104,-4.3104,-4.3104,-4.2905,-4.2975,-4.2958,-4.3031,-4.3028,-4.3075,-4.3086,-4.3099,-4.3105,-4.316,-4.3189,-4.3179,-4.3179,-4.321,-4.324,-4.3235,-4.3249,-4.3287,-4.3274,-4.3118,-4.3095,-4.3074,-4.3054,-4.3291,-4.3291,-4.3438,-4.3439,-4.344]},{"header":{"parameterUnit":"m.s-1","parameterCategory":1,"la1":30.2991,"la2":30.254,"lo1":-89.0895,"lo2":-89.0444,"dy":0.0017,"dx":0.0017,"nx":28,"ny":28,"refTime":"2025-08-25T03:00:00:Z","depth":0,"parameterNumber":3,"parameterNumberName":"V-component_of_WINDS"},"data":[0,0,0,0,0,0,0,0,0,0,0,0,0,0,0,0,0,0,0,0,0,0,0,0,0,0,0,0,0,0,0,0,0,0,0,0,0,0,0,0,0,0,0,0,0,0,0,0,0,0,0,0,0,0,0,0,0,0,0.8643,0.8643,0,0.869,0.869,0.8691,0.8745,0.8746,0.8747,0.8748,0.8793,0.8794,0.8794,0,0,0,0,0,0,0,0,0,0,0,0,0,0.8601,0.8601,0.8643,0.8643,0.8644,0.8689,0.869,0.8691,0.8745,0.8746,0.8747,0.8748,0.8793,0.8794,0.8794,0,0,0,0,0,0,0,0,0,0,0,0,0,0.863,0.8601,0.8643,0.8677,0.868,0.8689,0.869,0.8691,0.8745,0.8746,0.8747,0.8748,0.8793,0.8794,0.8794,0.8773,0,0,0.8796,0.8797,0,0,0,0,0,0,0,0,0.8628,0.8632,0.8671,0.8674,0.8678,0.8713,0.8692,0.8718,0.8744,0.872,0.8748,0.8749,0.8765,0.8768,0.8774,0.8775,0.8777,0.8796,0.8797,0.8797,0.8797,0,0,0,0,0,0,0,0.8626,0.863,0.8661,0.8672,0.8676,0.8689,0.8695,0.8697,0.8735,0.8722,0.8726,0.8731,0.8768,0.8774,0.8776,0.8778,0.8796,0.8797,0.8797,0.8798,0.8766,0.8765,0,0,0,0,0,0,0.8619,0.8628,0.866,0.8663,0.8656,0.8689,0.8695,0.87,0.8735,0.8742,0.873,0.8734,0.8772,0.8775,0.8778,0.8756,0.8797,0.8798,0.8798,0.8768,0.8766,0.8765,0,0,0,0,0,0,0.8618,0.8622,0.8658,0.8647,0.8652,0.8689,0.8694,0.8701,0.8707,0.8741,0.8748,0.8729,0.8773,0.8777,0.8775,0.8759,0.8798,0.8799,0.8769,0.8767,0.8765,0.8712,0,0,0,0,0,0,0.8617,0.8621,0.8613,0.8646,0.8653,0.8654,0.8693,0.8701,0.8708,0.8713,0.8742,0.8748,0.8774,0.8773,0.8775,0.876,0.8799,0.8771,0.8768,0.8766,0.8716,0.8709,0.8703,0,0,0,0,0,0.8615,0.8596,0.8612,0.8616,0.8644,0.8653,0.8657,0.8687,0.8706,0.8699,0.8722,0.8747,0.876,0.8773,0.8775,0.876,0.8772,0.8769,0.8766,0.8719,0.871,0.8703,0,0,0,0,0,0,0.8558,0.86,0.8619,0.861,0.8628,0.8662,0.8653,0.8677,0.8689,0.8693,0.8731,0.8737,0.873,0.8745,0.8758,0.8743,0.877,0.8767,0.8733,0.8725,0.8719,0.8715,0.88,0,0,0,0,0,0.8545,0.8549,0.8586,0.8574,0.8582,0.8616,0.8621,0.8644,0.8663,0.867,0.8693,0.871,0.8719,0.8723,0.8732,0.8719,0.8726,0.871,0.8704,0.8698,0.8696,0.8691,0.8684,0.8756,0.8756,0.8756,0,0,0.8517,0.8541,0.8541,0.8563,0.8579,0.8583,0.8622,0.8623,0.8627,0.8671,0.867,0.8687,0.871,0.8702,0.87,0.8714,0.8678,0.8695,0.869,0.8691,0.8687,0.868,0.8674,0.8754,0.8754,0.8754,0,0,0.8468,0.8486,0.8479,0.8495,0.8519,0.8543,0.8541,0.8573,0.8586,0.8587,0.862,0.8624,0.8637,0.8652,0.8661,0.8621,0.8645,0.8623,0.859,0.8585,0.8579,0.8574,0.856,0.8554,0.862,0.862,0.862,0,0.8429,0.8436,0.8472,0.8472,0.8481,0.8523,0.8516,0.853,0.8556,0.8561,0.8578,0.8596,0.8614,0.8611,0.8601,0.8608,0.8607,0.8619,0.8577,0.8573,0.8569,0.8555,0.855,0.8617,0.8618,0.8618,0.8618,0,0.8388,0.8393,0.8384,0.841,0.8418,0.8415,0.845,0.8454,0.8477,0.8498,0.8499,0.8523,0.8538,0.8539,0.856,0.854,0.8548,0.857,0.8598,0.8558,0.8546,0.8542,0.8613,0.8614,0.8615,0.8616,0,0,0.8302,0.8349,0.8345,0.8358,0.839,0.8394,0.8393,0.841,0.8413,0.843,0.843,0.8442,0.8463,0.8474,0.8498,0.8493,0.846,0.8516,0.8517,0.8505,0.844,0.8422,0.8416,0.8478,0.8477,0.8476,0.8438,0,0.8258,0.826,0.8292,0.8284,0.829,0.8331,0.833,0.835,0.8371,0.8378,0.8401,0.8409,0.8437,0.8443,0.8441,0.8465,0.8448,0.8468,0.8478,0.8478,0.847,0.841,0.8391,0.8354,0.8433,0.8433,0.8432,0,0.8206,0.8222,0.8215,0.8249,0.8252,0.8251,0.827,0.8276,0.83,0.8316,0.8329,0.8356,0.8358,0.8386,0.839,0.8403,0.8409,0.8422,0.8421,0.8422,0.8452,0.8409,0.8343,0.8337,0.8425,0.8426,0.8426,0,0.8144,0.8164,0.8163,0.8172,0.8211,0.821,0.8226,0.8251,0.8259,0.8276,0.8282,0.8298,0.8306,0.8318,0.835,0.8367,0.835,0.838,0.8363,0.8362,0.8356,0.8356,0.829,0.8362,0.8362,0.8362,0.8362,0,0.8091,0.8085,0.8135,0.8134,0.8129,0.8168,0.8162,0.8182,0.8204,0.8208,0.8245,0.8248,0.829,0.8298,0.8323,0.8322,0.8326,0.8339,0.8345,0.8335,0.8333,0.8339,0.8342,0.836,0.8361,0.8361,0.8361,0,0.802,0.8053,0.8055,0.8093,0.8102,0.8097,0.813,0.813,0.8155,0.8159,0.8163,0.8201,0.8212,0.8246,0.8265,0.8282,0.8274,0.8287,0.8266,0.827,0.8252,0.8253,0.8186,0.8179,0.8255,0.8254,0.8254,0,0.7983,0.798,0.8018,0.8024,0.8039,0.8048,0.8057,0.8096,0.8104,0.8132,0.8129,0.8144,0.8158,0.8174,0.8203,0.8219,0.8232,0.8207,0.8234,0.8225,0.8232,0.8231,0.8231,0.8201,0.82,0.8199,0.8198,0,0.7915,0.7932,0.7944,0.7963,0.7974,0.799,0.8008,0.8011,0.8054,0.8061,0.8074,0.8085,0.8106,0.812,0.8141,0.8158,0.8185,0.819,0.8187,0.8176,0.8164,0.8171,0.825,0.8191,0.8192,0.8192,0.8193,0.8193,0.786,0.7859,0.7887,0.79,0.7918,0.7935,0.7938,0.7964,0.7975,0.7996,0.8018,0.8029,0.8055,0.8085,0.8101,0.811,0.8124,0.8119,0.8118,0.8116,0.8112,0.8164,0.8113,0.8114,0.8114,0.8114,0.8114,0,0.7793,0.7814,0.7825,0.7851,0.7861,0.7888,0.791,0.7917,0.7926,0.7948,0.7961,0.7977,0.7992,0.8023,0.8041,0.8042,0.8055,0.8045,0.8045,0.8049,0.8098,0.8099,0.8034,0.8034,0.8034,0.8034,0.8034,0.8034,0.776,0.7761,0.7782,0.7793,0.7813,0.7825,0.7835,0.7851,0.7869,0.7885,0.7898,0.7919,0.7945,0.7965,0.798,0.7989,0.7994,0.798,0.7992,0.8037,0.8045,0.8052,0.8053,0.798,0.798,0.7943,0.7942,0.7942]}]]